Terminal Aerodrome Forecast
Issued by NWS

Home | Current Version | Previous Version | Text Only | Print | Product List | Glossary On
Versions: 1 2 3 4 5 6 7 8 9 10 11 12 13 14 15 16 17 18
000
FTUS45 KRIW 230500
TAFJAC
TAF
KJAC 230524Z 2306/2406 VRB03KT P6SM BKN045
     FM230900 36006KT P6SM VCFG SCT004 BKN025
     FM231100 36004KT 3SM BR SCT004 BKN012
     FM231600 19006KT P6SM SCT012 BKN030
     FM231800 20009KT P6SM SCT050
     FM240300 36006KT P6SM SKC
      AMD LTD TO CLD VIS AND WIND=

USA.gov is the U.S. government's official web portal to all federal, state and local government web resources and services.